Location: Strada George Coșbuc
(47.6577°N, 23.5639°E)
Time: 07:49:51
(UTC+03:00)

ISS - Pass Details

Date: 27 September 2017
Orbit: 401 x 407 km, 51.6° (Epoch: 24 September)

Event Time Altitude Azimuth Distance (km) Brightness Sun altitude
Rises 20:34:11 0° 226° (SW) 2,309 0.5 -14.4°
Reaches altitude 10° 20:36:18 10° 219° (SW) 1,454 -0.7 -14.7°
Maximum altitude 20:39:24 42° 147° (SSE) 585 -3.4 -15.2°
Enters shadow 20:40:04 37° 113° (ESE) 650 -3.3 -15.3°
